Tracking 25410 objects as of 21-Jan-2022
HD Live streaming from Space Station
objects crossing your sky now

SKYSAT C15

Track SKYSAT C15 now!
10-day predictions


NORAD ID: 45790
Int'l Code: 2020-038BN
Perigee: 396.4 km
Apogee: 401.0 km
Inclination: 53.0 °
Period: 92.4 minutes
Semi major axis: 6769 km
RCS: Unknown
Launch date: June 13, 2020
Source: United States (US)
Launch site: AIR FORCE EASTERN TEST RANGE (AFETR)
aabbcc
Your satellite tracking list
Your tracking list is empty




NASA's NSSDC Master Catalog

Two Line Element Set (TLE):
1 45790U 20038BN  22021.21269935  .00015482  00000-0  20409-3 0  9990
2 45790  52.9986 323.8733 0003385 318.8011  41.2744 15.58641637 91677
Source of the keplerian elements: AFSPC